Stündliche Wetter Abbotsford

Heute, 28 Februar, Sonntag

Zeit Temperatur Niederschläge Wind Luftdruck Luftfeuchtigkeit
00:00 +4°C° 0.8 mm 1 m/S 761 mmHg 97%
01:00 +4°C° 0.8 mm 1 m/S 760 mmHg 98%
02:00 +4°C° 0.7 mm 1 m/S 760 mmHg 98%
03:00 +4°C° 0.7 mm 1 m/S 760 mmHg 97%
04:00 +4°C° 0.7 mm 1 m/S 761 mmHg 97%
05:00 +4°C° 0.6 mm 1 m/S 760 mmHg 97%
06:00 +4°C° 0.6 mm 1 m/S 760 mmHg 97%
07:00 +5°C° 0.6 mm 1 m/S 760 mmHg 97%
08:00 +5°C° 0.2 mm 1 m/S 760 mmHg 97%
09:00 +4°C° 0.2 mm 0 m/S 760 mmHg 97%
10:00 +5°C° 0.2 mm 0 m/S 760 mmHg 96%
11:00 +5°C° 0.1 mm 0 m/S 760 mmHg 96%
12:00 +5°C° 0.1 mm 0 m/S 760 mmHg 96%
13:00 +6°C° 0.1 mm 0 m/S 759 mmHg 95%
14:00 +6°C° 0 mm 0 m/S 759 mmHg 95%
15:00 +6°C° 0 mm 0 m/S 759 mmHg 95%
16:00 +6°C° 0 mm 0 m/S 759 mmHg 95%
17:00 +6°C° 0 mm 0 m/S 759 mmHg 95%
18:00 +6°C° 0 mm 0 m/S 758 mmHg 95%
19:00 +5°C° 0 mm 0 m/S 758 mmHg 96%
20:00 +6°C° 0 mm 1 m/S 758 mmHg 96%
21:00 +6°C° 0 mm 1 m/S 758 mmHg 95%
22:00 +6°C° 0 mm 1 m/S 758 mmHg 95%
23:00 +5°C° 0 mm 1 m/S 758 mmHg 95%

Morgen, 1 März, Montag

Zeit Temperatur Niederschläge Wind Luftdruck Luftfeuchtigkeit
00:00 +5°C° 0 mm 1 m/S 758 mmHg 95%
01:00 +5°C° 0 mm 1 m/S 757 mmHg 94%
02:00 +5°C° 0 mm 1 m/S 758 mmHg 94%
03:00 +5°C° 0 mm 1 m/S 758 mmHg 93%
04:00 +5°C° 0 mm 1 m/S 758 mmHg 93%
05:00 +5°C° 0 mm 1 m/S 757 mmHg 92%
06:00 +5°C° 0 mm 1 m/S 757 mmHg 92%
07:00 +5°C° 0 mm 1 m/S 757 mmHg 91%
08:00 +6°C° 0 mm 1 m/S 757 mmHg 89%
09:00 +7°C° 0 mm 0 m/S 757 mmHg 87%
10:00 +8°C° 0 mm 0 m/S 757 mmHg 85%
11:00 +9°C° 0 mm 0 m/S 757 mmHg 83%
12:00 +10°C° 0 mm 1 m/S 756 mmHg 81%
13:00 +11°C° 0 mm 1 m/S 756 mmHg 78%
14:00 +11°C° 0 mm 1 m/S 756 mmHg 78%
15:00 +11°C° 0 mm 1 m/S 756 mmHg 78%
16:00 +10°C° 0 mm 2 m/S 756 mmHg 78%
17:00 +8°C° 0 mm 2 m/S 756 mmHg 83%
18:00 +8°C° 0 mm 1 m/S 756 mmHg 87%
19:00 +6°C° 0 mm 1 m/S 756 mmHg 92%
20:00 +6°C° 0 mm 1 m/S 757 mmHg 91%
21:00 +6°C° 0 mm 1 m/S 757 mmHg 89%
22:00 +6°C° 0 mm 1 m/S 757 mmHg 88%
23:00 +6°C° 0 mm 1 m/S 757 mmHg 88%

übermorgen, 2 März, Dienstag

Zeit Temperatur Niederschläge Wind Luftdruck Luftfeuchtigkeit
00:00 +6°C° 0 mm 1 m/S 757 mmHg 88%
01:00 +6°C° 0 mm 1 m/S 757 mmHg 88%
02:00 +6°C° 0.1 mm 1 m/S 757 mmHg 90%
03:00 +6°C° 0.1 mm 1 m/S 757 mmHg 92%
04:00 +6°C° 0.1 mm 1 m/S 757 mmHg 94%
05:00 +6°C° 0.3 mm 1 m/S 757 mmHg 95%
06:00 +6°C° 0.3 mm 1 m/S 756 mmHg 95%
07:00 +6°C° 0.3 mm 1 m/S 756 mmHg 96%
08:00 +6°C° 0.1 mm 1 m/S 756 mmHg 94%
09:00 +7°C° 0.1 mm 1 m/S 756 mmHg 91%
10:00 +7°C° 0.1 mm 1 m/S 756 mmHg 89%
11:00 +7°C° 0.1 mm 1 m/S 756 mmHg 86%
12:00 +8°C° 0.1 mm 1 m/S 756 mmHg 82%
13:00 +8°C° 0.1 mm 1 m/S 756 mmHg 79%
14:00 +8°C° 0.1 mm 1 m/S 756 mmHg 78%
15:00 +8°C° 0.1 mm 1 m/S 755 mmHg 78%
16:00 +8°C° 0.1 mm 1 m/S 755 mmHg 78%
17:00 +7°C° 0 mm 1 m/S 755 mmHg 82%
18:00 +6°C° 0 mm 1 m/S 755 mmHg 87%
19:00 +4°C° 0 mm 0 m/S 755 mmHg 92%
20:00 +3°C° 0 mm 0 m/S 755 mmHg 92%
21:00 +4°C° 0 mm 1 m/S 756 mmHg 92%
22:00 +4°C° 0 mm 1 m/S 756 mmHg 93%
23:00 +3°C° 0 mm 1 m/S 756 mmHg 93%

3 März, Mittwoch

Zeit Temperatur Niederschläge Wind Luftdruck Luftfeuchtigkeit
00:00 +3°C° 0 mm 1 m/S 756 mmHg 92%
01:00 +3°C° 0 mm 1 m/S 755 mmHg 92%
02:00 +3°C° 0 mm 1 m/S 755 mmHg 91%
03:00 +3°C° 0 mm 1 m/S 755 mmHg 91%
04:00 +3°C° 0 mm 1 m/S 755 mmHg 90%
05:00 +3°C° 0 mm 1 m/S 755 mmHg 89%
06:00 +3°C° 0 mm 1 m/S 755 mmHg 88%
07:00 +3°C° 0 mm 1 m/S 755 mmHg 87%
08:00 +5°C° 0 mm 1 m/S 755 mmHg 81%
09:00 +6°C° 0 mm 1 m/S 754 mmHg 76%
10:00 +8°C° 0 mm 1 m/S 754 mmHg 70%
11:00 +10°C° 0 mm 1 m/S 754 mmHg 66%
12:00 +11°C° 0 mm 1 m/S 754 mmHg 62%
13:00 +12°C° 0 mm 1 m/S 754 mmHg 57%
14:00 +12°C° 0 mm 1 m/S 754 mmHg 59%
15:00 +12°C° 0 mm 1 m/S 753 mmHg 60%
16:00 +12°C° 0 mm 1 m/S 753 mmHg 61%
17:00 +10°C° 0 mm 1 m/S 753 mmHg 68%
18:00 +8°C° 0 mm 1 m/S 754 mmHg 75%
19:00 +5°C° 0 mm 2 m/S 754 mmHg 82%
20:00 +5°C° 0 mm 2 m/S 754 mmHg 80%
21:00 +5°C° 0 mm 2 m/S 754 mmHg 78%
22:00 +4°C° 0 mm 2 m/S 755 mmHg 76%
23:00 +4°C° 0 mm 2 m/S 754 mmHg 76%

4 März, Donnerstag

Zeit Temperatur Niederschläge Wind Luftdruck Luftfeuchtigkeit
00:00 +4°C° 0 mm 2 m/S 754 mmHg 76%
01:00 +3°C° 0 mm 2 m/S 754 mmHg 76%
02:00 +3°C° 0 mm 2 m/S 754 mmHg 75%
03:00 +3°C° 0 mm 2 m/S 754 mmHg 75%
04:00 +3°C° 0 mm 2 m/S 754 mmHg 75%
05:00 +3°C° 0 mm 2 m/S 754 mmHg 74%
06:00 +3°C° 0 mm 2 m/S 754 mmHg 74%
07:00 +2°C° 0 mm 2 m/S 754 mmHg 74%
08:00 +5°C° 0 mm 2 m/S 754 mmHg 68%
09:00 +8°C° 0 mm 1 m/S 754 mmHg 62%
10:00 +11°C° 0 mm 1 m/S 754 mmHg 57%
11:00 +12°C° 0 mm 1 m/S 754 mmHg 55%
12:00 +14°C° 0 mm 1 m/S 754 mmHg 53%
13:00 +15°C° 0 mm 1 m/S 754 mmHg 51%
14:00 +15°C° 0 mm 1 m/S 754 mmHg 56%
15:00 +14°C° 0 mm 1 m/S 754 mmHg 61%
16:00 +13°C° 0 mm 0 m/S 755 mmHg 65%
17:00 +12°C° 0 mm 1 m/S 755 mmHg 71%
18:00 +11°C° 0 mm 1 m/S 756 mmHg 76%
19:00 +8°C° 0 mm 2 m/S 756 mmHg 81%
20:00 +7°C° 0 mm 2 m/S 756 mmHg 81%
21:00 +7°C° 0 mm 2 m/S 757 mmHg 80%
22:00 +7°C° 0 mm 2 m/S 757 mmHg 80%
23:00 +7°C° 0 mm 2 m/S 757 mmHg 78%

5 März, Freitag

Zeit Temperatur Niederschläge Wind Luftdruck Luftfeuchtigkeit
00:00 +7°C° 0 mm 2 m/S 757 mmHg 77%
01:00 +7°C° 0 mm 2 m/S 756 mmHg 76%
02:00 +7°C° 0 mm 2 m/S 756 mmHg 74%
03:00 +7°C° 0 mm 2 m/S 756 mmHg 72%
04:00 +7°C° 0 mm 2 m/S 756 mmHg 70%
05:00 +7°C° 0 mm 2 m/S 755 mmHg 69%
06:00 +7°C° 0 mm 2 m/S 755 mmHg 68%
07:00 +7°C° 0 mm 2 m/S 755 mmHg 67%
08:00 +8°C° 0 mm 2 m/S 754 mmHg 65%
09:00 +10°C° 0 mm 2 m/S 754 mmHg 62%
10:00 +12°C° 0 mm 2 m/S 753 mmHg 60%
11:00 +13°C° 0 mm 2 m/S 753 mmHg 57%
12:00 +15°C° 0 mm 2 m/S 752 mmHg 54%
13:00 +16°C° 0 mm 2 m/S 752 mmHg 51%
14:00 +16°C° 0 mm 1 m/S 751 mmHg 56%
15:00 +15°C° 0 mm 1 m/S 750 mmHg 61%
16:00 +15°C° 0 mm 1 m/S 750 mmHg 66%
17:00 +13°C° 0.4 mm 1 m/S 749 mmHg 74%
18:00 +11°C° 0.4 mm 1 m/S 749 mmHg 82%
19:00 +9°C° 0.4 mm 1 m/S 749 mmHg 89%
20:00 +9°C° 0.9 mm 1 m/S 748 mmHg 92%
21:00 +8°C° 0.9 mm 2 m/S 748 mmHg 94%
22:00 +7°C° 0.9 mm 2 m/S 747 mmHg 96%
23:00 +5°C° 3.8 mm 3 m/S 748 mmHg 96%
Mehr zeigen

Wir brauchen deine Erlaubnis

Meteoprog und unser Service Anbieter werden persönliche Daten aufbewahren, so wie Cookies, Geräte Bezeichnung oder ähnliche Technologien von deinem Gerät und Prozess, so wie Persönliche Daten Inhalte und Werbungen, genauso wie social Media und den Verkehr zu analysieren.

  • Aufbewahrung und/oder Zugang zu deiner Geräte Informationen.

    Cookies, Geräte Bezeichnung oder andere Informationen, können aufbewahrt oder Zugang zu deinem Gerät erhalten, für den Grund, der oben angegeben wird.

  • Personalisierte Werbung und Inhalte, Messungen, Einblick in das Publikum und Produkt Entwicklung.

    Werbungen und Inhalte können personalisiert werden, basierend auf ein Profil. Mehr Daten können besser personalisierte Werbungen und Inhalte hinzufügen. Werbung und Inhalte können gezeigt und gemessen werden. Einblicke über das Publikum, welche die Werbung gesehen haben und den Inhalt, können abgeleitet werden. So wie Daten können genutzt werden, um es zu verbessern oder die Benutzer Erfahrung zu verbessern das System und die Software.

Wenn du “Ich stimme zu” klickst, erlaubst du uns, die Cookies zu benutzen die Geräte Bezeichnung, den Web oder ähnliche Technologien zu benutzen. Deine Settings, können in deinem Gerät bei deinem Browser geändert werden.

Für den bestimmten Zweck, berechtigten Interessen beruhen darauf, mehr als auf den Inhalt. Du kannst mehr darüber in unseren Privaten und Cookie Politik lesen.